| time (UTC) | temp C | wind direction | speed KPH | gust KPH | rain 1hr cm | rain 24hr cm | rain mn cm | humidity % | barometer mb |
| 20260509032443 | 13 | 119 | 0.0 | 0.0 | 0.00 | 0.00 | 0.00 | 66 | 1043.8 |
| 20260509031940 | 13 | 119 | 0.0 | 0.0 | 0.00 | 0.00 | 0.00 | 69 | 1043.7 |
| 20260509031437 | 13 | 119 | 0.0 | 0.0 | 0.00 | 0.00 | 0.00 | 72 | 1043.8 |
| 20260509030935 | 13 | 119 | 0.0 | 0.0 | 0.00 | 0.00 | 0.00 | 67 | 1043.8 |
| 20260509030432 | 13 | 119 | 0.0 | 0.0 | 0.00 | 0.00 | 0.00 | 62 | 1043.9 |
| 20260509025929 | 13 | 119 | 0.0 | 0.0 | 0.00 | 0.00 | 0.00 | 62 | 1043.8 |
| 20260509025425 | 13 | 119 | 0.0 | 1.6 | 0.00 | 0.00 | 0.00 | 63 | 1043.9 |
| 20260509024920 | 13 | 119 | 0.0 | 0.0 | 0.00 | 0.00 | 0.00 | 63 | 1044.0 |
| 20260509024417 | 13 | 119 | 0.0 | 0.0 | 0.00 | 0.00 | 0.00 | 60 | 1044.0 |
| 20260509023914 | 14 | 119 | 0.0 | 0.0 | 0.00 | 0.00 | 0.00 | 61 | 1043.7 |
| 20260509023411 | 14 | 119 | 0.0 | 0.0 | 0.00 | 0.00 | 0.00 | 60 | 1043.9 |
| 20260509022907 | 15 | 119 | 0.0 | 0.0 | 0.00 | 0.00 | 0.00 | 59 | 1044.0 |
| 20260509022405 | 15 | 119 | 0.0 | 1.6 | 0.00 | 0.00 | 0.00 | 60 | 1043.9 |
| 20260509021902 | 15 | 119 | 0.0 | 0.0 | 0.00 | 0.00 | 0.00 | 58 | 1044.1 |
| 20260509021359 | 15 | 119 | 3.2 | 4.8 | 0.00 | 0.00 | 0.00 | 52 | 1044.1 |
| 20260509020856 | 15 | 122 | 3.2 | 3.2 | 0.00 | 0.00 | 0.00 | 54 | 1044.1 |
| 20260509020354 | 14 | 150 | 0.0 | 3.2 | 0.00 | 0.00 | 0.00 | 56 | 1044.0 |
| 20260509015852 | 14 | 160 | 0.0 | 0.0 | 0.00 | 0.00 | 0.00 | 56 | 1044.1 |
| 20260509015350 | 14 | 160 | 0.0 | 0.0 | 0.00 | 0.00 | 0.00 | 57 | 1044.0 |
| 20260509014846 | 14 | 160 | 0.0 | 0.0 | 0.00 | 0.00 | 0.00 | 56 | 1044.2 |
| 20260509014343 | 14 | 160 | 0.0 | 0.0 | 0.00 | 0.00 | 0.00 | 58 | 1044.2 |
| 20260509013839 | 15 | 159 | 0.0 | 0.0 | 0.00 | 0.00 | 0.00 | 57 | 1044.1 |
| 20260509013336 | 15 | 159 | 0.0 | 0.0 | 0.00 | 0.00 | 0.00 | 52 | 1043.8 |
| 20260509012832 | 15 | 159 | 0.0 | 0.0 | 0.00 | 0.00 | 0.00 | 57 | 1043.8 |
| 20260509012328 | 15 | 160 | 0.0 | 0.0 | 0.00 | 0.00 | 0.00 | 55 | 1044.0 |
| 20260509011826 | 16 | 160 | 0.0 | 0.0 | 0.00 | 0.00 | 0.00 | 51 | 1043.9 |
| 20260509011323 | 16 | 160 | 0.0 | 0.0 | 0.00 | 0.00 | 0.00 | 51 | 1043.9 |
| 20260509010821 | 16 | 160 | 1.6 | 1.6 | 0.00 | 0.00 | 0.00 | 54 | 1043.8 |
| 20260509010318 | 16 | 159 | 3.2 | 3.2 | 0.00 | 0.00 | 0.00 | 48 | 1043.8 |
| 20260509005815 | 16 | 166 | 3.2 | 3.2 | 0.00 | 0.00 | 0.00 | 46 | 1043.8 |
| 20260509005313 | 17 | 165 | 0.0 | 3.2 | 0.00 | 0.00 | 0.00 | 49 | 1043.7 |
| 20260509004808 | 17 | 152 | 3.2 | 4.8 | 0.00 | 0.00 | 0.00 | 46 | 1043.8 |
| 20260509004304 | 17 | 157 | 3.2 | 3.2 | 0.00 | 0.00 | 0.00 | 47 | 1043.9 |
| 20260509003802 | 17 | 168 | 3.2 | 3.2 | 0.00 | 0.00 | 0.00 | 48 | 1043.8 |
| 20260509003300 | 17 | 167 | 1.6 | 3.2 | 0.00 | 0.00 | 0.00 | 48 | 1043.7 |
| 20260509002757 | 17 | 167 | 3.2 | 3.2 | 0.00 | 0.00 | 0.00 | 46 | 1043.7 |
| 20260509002254 | 18 | 165 | 3.2 | 3.2 | 0.00 | 0.00 | 0.00 | 42 | 1043.7 |
| 20260509001752 | 18 | 161 | 1.6 | 3.2 | 0.00 | 0.00 | 0.00 | 43 | 1043.7 |
| 20260509001247 | 18 | 177 | 3.2 | 3.2 | 0.00 | 0.00 | 0.00 | 42 | 1043.8 |
| 20260509000745 | 18 | 161 | 3.2 | 4.8 | 0.00 | 0.00 | 0.00 | 39 | 1044.1 |
| 20260509000242 | 19 | 209 | 3.2 | 4.8 | 0.00 | 0.00 | 0.00 | 39 | 1043.9 |
| 20260508235739 | 19 | 225 | 6.4 | 6.4 | 0.00 | 0.00 | 0.00 | 38 | 1043.9 |
| 20260508235236 | 19 | 174 | 4.8 | 6.4 | 0.00 | 0.00 | 0.00 | 37 | 1044.1 |
| 20260508234733 | 19 | 214 | 3.2 | 6.4 | 0.00 | 0.00 | 0.00 | 39 | 1044.3 |
| 20260508234229 | 19 | 166 | 3.2 | 6.4 | 0.00 | 0.00 | 0.00 | 39 | 1044.2 |
| 20260508233729 | 19 | 155 | 8.0 | 11.3 | 0.00 | 0.00 | 0.00 | 36 | 1044.0 |
| 20260508233227 | 19 | 196 | 8.0 | 11.3 | 0.00 | 0.00 | 0.00 | 36 | 1044.0 |
| 20260508232724 | 20 | 213 | 3.2 | 9.7 | 0.00 | 0.00 | 0.00 | 38 | 1044.2 |
| 20260508232220 | 20 | 175 | 8.0 | 14.5 | 0.00 | 0.00 | 0.00 | 36 | 1044.1 |
| 20260508231718 | 20 | 218 | 4.8 | 6.4 | 0.00 | 0.00 | 0.00 | 37 | 1044.2 |
| 20260508231215 | 20 | 217 | 3.2 | 9.7 | 0.00 | 0.00 | 0.00 | 37 | 1044.3 |
| 20260508230712 | 20 | 232 | 6.4 | 16.1 | 0.00 | 0.00 | 0.00 | 34 | 1044.5 |
| 20260508230208 | 20 | 175 | 4.8 | 16.1 | 0.00 | 0.00 | 0.00 | 33 | 1044.4 |
| 20260508225706 | 21 | 169 | 6.4 | 12.9 | 0.00 | 0.00 | 0.00 | 34 | 1044.2 |
| 20260508225202 | 21 | 160 | 12.9 | 16.1 | 0.00 | 0.00 | 0.00 | 33 | 1044.1 |
| 20260508224700 | 21 | 155 | 6.4 | 14.5 | 0.00 | 0.00 | 0.00 | 33 | 1044.2 |
| 20260508224157 | 21 | 215 | 6.4 | 14.5 | 0.00 | 0.00 | 0.00 | 32 | 1044.2 |
| 20260508223655 | 21 | 212 | 9.7 | 16.1 | 0.00 | 0.00 | 0.00 | 32 | 1044.4 |
| 20260508223152 | 21 | 139 | 3.2 | 11.3 | 0.00 | 0.00 | 0.00 | 32 | 1044.2 |
| 20260508222649 | 21 | 218 | 6.4 | 14.5 | 0.00 | 0.00 | 0.00 | 33 | 1044.1 |
| 20260508222146 | 21 | 167 | 6.4 | 20.9 | 0.00 | 0.00 | 0.00 | 34 | 1044.1 |
| 20260508221642 | 21 | 226 | 9.7 | 20.9 | 0.00 | 0.00 | 0.00 | 31 | 1044.2 |
| 20260508221138 | 22 | 235 | 8.0 | 11.3 | 0.00 | 0.00 | 0.00 | 34 | 1043.9 |
| 20260508220635 | 22 | 208 | 6.4 | 9.7 | 0.00 | 0.00 | 0.00 | 32 | 1044.1 |
| 20260508220132 | 22 | 170 | 8.0 | 9.7 | 0.00 | 0.00 | 0.00 | 34 | 1044.0 |
| 20260508215628 | 22 | 232 | 9.7 | 14.5 | 0.00 | 0.00 | 0.00 | 30 | 1044.3 |
| 20260508215125 | 22 | 247 | 4.8 | 6.4 | 0.00 | 0.00 | 0.00 | 34 | 1044.2 |
| 20260508214622 | 22 | 222 | 6.4 | 12.9 | 0.00 | 0.00 | 0.00 | 33 | 1043.9 |
| 20260508214119 | 22 | 212 | 4.8 | 9.7 | 0.00 | 0.00 | 0.00 | 33 | 1044.4 |
| 20260508213616 | 22 | 215 | 9.7 | 12.9 | 0.00 | 0.00 | 0.00 | 30 | 1044.2 |
| 20260508213112 | 21 | 262 | 4.8 | 12.9 | 0.00 | 0.00 | 0.00 | 32 | 1044.0 |
| 20260508212609 | 21 | 193 | 8.0 | 12.9 | 0.00 | 0.00 | 0.00 | 31 | 1044.2 |
| 20260508212105 | 22 | 213 | 6.4 | 16.1 | 0.00 | 0.00 | 0.00 | 31 | 1044.1 |
| 20260508211600 | 22 | 217 | 6.4 | 9.7 | 0.00 | 0.00 | 0.00 | 31 | 1044.1 |
| 20260508211057 | 21 | 211 | 11.3 | 14.5 | 0.00 | 0.00 | 0.00 | 31 | 1044.3 |
| 20260508210553 | 22 | 134 | 6.4 | 16.1 | 0.00 | 0.00 | 0.00 | 31 | 1044.4 |
| 20260508210051 | 22 | 204 | 11.3 | 14.5 | 0.00 | 0.00 | 0.00 | 31 | 1044.3 |
| 20260508205548 | 22 | 216 | 6.4 | 9.7 | 0.00 | 0.00 | 0.00 | 33 | 1044.5 |
| 20260508205044 | 22 | 266 | 3.2 | 11.3 | 0.00 | 0.00 | 0.00 | 34 | 1044.7 |
| 20260508204541 | 21 | 161 | 8.0 | 11.3 | 0.00 | 0.00 | 0.00 | 30 | 1044.6 |
| 20260508204037 | 21 | 206 | 11.3 | 14.5 | 0.00 | 0.00 | 0.00 | 30 | 1044.8 |
| 20260508203533 | 22 | 232 | 9.7 | 12.9 | 0.00 | 0.00 | 0.00 | 34 | 1044.8 |
| 20260508203029 | 22 | 259 | 8.0 | 16.1 | 0.00 | 0.00 | 0.00 | 31 | 1044.9 |
| 20260508202526 | 21 | 228 | 4.8 | 14.5 | 0.00 | 0.00 | 0.00 | 35 | 1044.9 |
| 20260508202023 | 21 | 298 | 4.8 | 16.1 | 0.00 | 0.00 | 0.00 | 33 | 1045.4 |
| 20260508201520 | 21 | 100 | 6.4 | 17.7 | 0.00 | 0.00 | 0.00 | 30 | 1045.4 |
| 20260508201016 | 21 | 222 | 3.2 | 20.9 | 0.00 | 0.00 | 0.00 | 35 | 1045.5 |
| 20260508200514 | 21 | 212 | 14.5 | 22.5 | 0.00 | 0.00 | 0.00 | 30 | 1045.5 |
| 20260508200009 | 21 | 150 | 8.0 | 12.9 | 0.00 | 0.00 | 0.00 | 33 | 1045.4 |
| 20260508195506 | 21 | 197 | 12.9 | 24.1 | 0.00 | 0.00 | 0.00 | 35 | 1045.5 |
| 20260508195002 | 21 | 123 | 9.7 | 17.7 | 0.00 | 0.00 | 0.00 | 33 | 1045.5 |
| 20260508194459 | 21 | 177 | 6.4 | 14.5 | 0.00 | 0.00 | 0.00 | 35 | 1045.4 |
| 20260508193956 | 21 | 157 | 9.7 | 16.1 | 0.00 | 0.00 | 0.00 | 35 | 1045.4 |
| 20260508193453 | 21 | 225 | 8.0 | 17.7 | 0.00 | 0.00 | 0.00 | 34 | 1045.0 |
| 20260508192949 | 21 | 162 | 6.4 | 17.7 | 0.00 | 0.00 | 0.00 | 34 | 1045.4 |
| 20260508192446 | 21 | 223 | 6.4 | 16.1 | 0.00 | 0.00 | 0.00 | 36 | 1045.4 |
| 20260508191943 | 20 | 209 | 4.8 | 17.7 | 0.00 | 0.00 | 0.00 | 36 | 1045.5 |
| 20260508191440 | 20 | 139 | 12.9 | 14.5 | 0.00 | 0.00 | 0.00 | 32 | 1045.6 |
| 20260508190937 | 21 | 158 | 16.1 | 29.0 | 0.00 | 0.00 | 0.00 | 35 | 1045.8 |
| 20260508190434 | 21 | 152 | 9.7 | 22.5 | 0.00 | 0.00 | 0.00 | 36 | 1045.6 |
| 20260508185930 | 21 | 158 | 6.4 | 20.9 | 0.00 | 0.00 | 0.00 | 36 | 1045.8 |
| 20260508185428 | 20 | 206 | 6.4 | 9.7 | 0.00 | 0.00 | 0.00 | 35 | 1045.9 |
| 20260508184925 | 21 | 123 | 16.1 | 22.5 | 0.00 | 0.00 | 0.00 | 34 | 1045.9 |
| 20260508184423 | 21 | 213 | 6.4 | 17.7 | 0.00 | 0.00 | 0.00 | 36 | 1046.0 |
| 20260508183919 | 21 | 147 | 4.8 | 16.1 | 0.00 | 0.00 | 0.00 | 38 | 1046.0 |
| 20260508183416 | 20 | 127 | 12.9 | 17.7 | 0.00 | 0.00 | 0.00 | 34 | 1046.1 |
| 20260508182911 | 21 | 150 | 12.9 | 25.7 | 0.00 | 0.00 | 0.00 | 34 | 1046.3 |
| 20260508182409 | 20 | 169 | 6.4 | 16.1 | 0.00 | 0.00 | 0.00 | 37 | 1046.3 |
| 20260508181903 | 21 | 188 | 12.9 | 22.5 | 0.00 | 0.00 | 0.00 | 34 | 1046.7 |
| 20260508181401 | 20 | 167 | 8.0 | 14.5 | 0.00 | 0.00 | 0.00 | 34 | 1046.8 |
| 20260508180858 | 20 | 179 | 11.3 | 17.7 | 0.00 | 0.00 | 0.00 | 35 | 1046.9 |
| 20260508180354 | 20 | 345 | 11.3 | 20.9 | 0.00 | 0.00 | 0.00 | 35 | 1047.0 |
| 20260508175850 | 20 | 149 | 11.3 | 16.1 | 0.00 | 0.00 | 0.00 | 36 | 1047.0 |
| 20260508175347 | 20 | 235 | 8.0 | 12.9 | 0.00 | 0.00 | 0.00 | 33 | 1047.1 |
| 20260508174846 | 20 | 156 | 14.5 | 17.7 | 0.00 | 0.00 | 0.00 | 34 | 1047.1 |
| 20260508174343 | 20 | 183 | 17.7 | 24.1 | 0.00 | 0.00 | 0.00 | 34 | 1047.3 |
| 20260508173839 | 20 | 202 | 9.7 | 14.5 | 0.00 | 0.00 | 0.00 | 34 | 1047.4 |
| 20260508173336 | 20 | 163 | 11.3 | 14.5 | 0.00 | 0.00 | 0.00 | 34 | 1047.4 |
| 20260508172832 | 20 | 196 | 14.5 | 22.5 | 0.00 | 0.00 | 0.00 | 40 | 1047.5 |
| 20260508172329 | 20 | 230 | 8.0 | 14.5 | 0.00 | 0.00 | 0.00 | 38 | 1047.7 |
| 20260508171826 | 20 | 190 | 6.4 | 20.9 | 0.00 | 0.00 | 0.00 | 40 | 1047.8 |
| 20260508171322 | 20 | 169 | 4.8 | 12.9 | 0.00 | 0.00 | 0.00 | 39 | 1047.8 |
| 20260508170819 | 20 | 242 | 6.4 | 9.7 | 0.00 | 0.00 | 0.00 | 38 | 1047.7 |
| 20260508170317 | 20 | 168 | 12.9 | 16.1 | 0.00 | 0.00 | 0.00 | 36 | 1047.9 |
| 20260508165813 | 20 | 158 | 4.8 | 16.1 | 0.00 | 0.00 | 0.00 | 38 | 1048.2 |
| 20260508165311 | 20 | 144 | 9.7 | 22.5 | 0.00 | 0.00 | 0.00 | 38 | 1048.4 |
| 20260508164806 | 20 | 235 | 8.0 | 16.1 | 0.00 | 0.00 | 0.00 | 41 | 1048.4 |
| 20260508164303 | 19 | 145 | 3.2 | 4.8 | 0.00 | 0.00 | 0.00 | 40 | 1048.5 |
| 20260508163801 | 20 | 208 | 11.3 | 14.5 | 0.00 | 0.00 | 0.00 | 37 | 1048.8 |
| 20260508163259 | 20 | 250 | 1.6 | 11.3 | 0.00 | 0.00 | 0.00 | 43 | 1048.7 |
| 20260508162754 | 19 | 230 | 3.2 | 11.3 | 0.00 | 0.00 | 0.00 | 44 | 1048.7 |
| 20260508162251 | 19 | 230 | 4.8 | 12.9 | 0.00 | 0.00 | 0.00 | 40 | 1048.9 |
| 20260508161748 | 19 | 237 | 4.8 | 6.4 | 0.00 | 0.00 | 0.00 | 41 | 1048.9 |
| 20260508161245 | 19 | 268 | 9.7 | 11.3 | 0.00 | 0.00 | 0.00 | 39 | 1049.1 |
| 20260508160743 | 18 | 220 | 4.8 | 6.4 | 0.00 | 0.00 | 0.00 | 41 | 1049.2 |
| 20260508160242 | 19 | 228 | 6.4 | 14.5 | 0.00 | 0.00 | 0.00 | 40 | 1049.1 |
| 20260508155738 | 18 | 272 | 9.7 | 11.3 | 0.00 | 0.00 | 0.00 | 39 | 1049.3 |
| 20260508155235 | 18 | 277 | 6.4 | 9.7 | 0.00 | 0.00 | 0.00 | 45 | 1049.3 |
| 20260508154732 | 18 | 160 | 8.0 | 17.7 | 0.00 | 0.00 | 0.00 | 42 | 1049.2 |
| 20260508154229 | 18 | 171 | 6.4 | 9.7 | 0.00 | 0.00 | 0.00 | 46 | 1049.2 |
| 20260508153726 | 18 | 236 | 6.4 | 11.3 | 0.00 | 0.00 | 0.00 | 42 | 1049.2 |
| 20260508153223 | 18 | 253 | 9.7 | 12.9 | 0.00 | 0.00 | 0.00 | 42 | 1049.3 |
| 20260508152720 | 18 | 215 | 6.4 | 9.7 | 0.00 | 0.00 | 0.00 | 41 | 1049.5 |
| 20260508152215 | 18 | 259 | 11.3 | 14.5 | 0.00 | 0.00 | 0.00 | 41 | 1049.7 |
| 20260508151712 | 18 | 245 | 9.7 | 14.5 | 0.00 | 0.00 | 0.00 | 42 | 1049.8 |
| 20260508151209 | 17 | 186 | 3.2 | 14.5 | 0.00 | 0.00 | 0.00 | 42 | 1049.7 |
| 20260508150705 | 17 | 228 | 4.8 | 11.3 | 0.00 | 0.00 | 0.00 | 43 | 1049.8 |
| 20260508150202 | 17 | 222 | 6.4 | 11.3 | 0.00 | 0.00 | 0.00 | 42 | 1049.5 |
| 20260508145658 | 17 | 41 | 6.4 | 9.7 | 0.00 | 0.00 | 0.00 | 43 | 1049.8 |
| 20260508145154 | 17 | 254 | 8.0 | 14.5 | 0.00 | 0.00 | 0.00 | 41 | 1049.8 |
| 20260508144652 | 17 | 254 | 8.0 | 17.7 | 0.00 | 0.00 | 0.00 | 42 | 1050.0 |
| 20260508144149 | 17 | 200 | 9.7 | 14.5 | 0.00 | 0.00 | 0.00 | 41 | 1049.9 |
| 20260508143646 | 17 | 241 | 6.4 | 6.4 | 0.00 | 0.00 | 0.00 | 47 | 1050.0 |
| 20260508143144 | 17 | 160 | 6.4 | 6.4 | 0.00 | 0.00 | 0.00 | 45 | 1049.8 |
| 20260508142640 | 16 | 184 | 3.2 | 6.4 | 0.00 | 0.00 | 0.00 | 45 | 1049.6 |
| 20260508142137 | 16 | 157 | 6.4 | 11.3 | 0.00 | 0.00 | 0.00 | 47 | 1049.7 |
| 20260508141633 | 16 | 197 | 3.2 | 4.8 | 0.00 | 0.00 | 0.00 | 50 | 1049.9 |
| 20260508141131 | 16 | 145 | 3.2 | 9.7 | 0.00 | 0.00 | 0.00 | 51 | 1049.8 |
| 20260508140628 | 15 | 164 | 3.2 | 6.4 | 0.00 | 0.00 | 0.00 | 56 | 1049.9 |
| 20260508140125 | 15 | 152 | 4.8 | 6.4 | 0.00 | 0.00 | 0.00 | 54 | 1049.7 |
| 20260508135620 | 15 | 240 | 4.8 | 6.4 | 0.00 | 0.00 | 0.00 | 56 | 1049.8 |
| 20260508135116 | 14 | 164 | 1.6 | 6.4 | 0.00 | 0.00 | 0.00 | 58 | 1050.2 |
| 20260508134613 | 14 | 227 | 4.8 | 6.4 | 0.00 | 0.00 | 0.00 | 56 | 1050.1 |
| 20260508134110 | 13 | 197 | 3.2 | 11.3 | 0.00 | 0.00 | 0.00 | 58 | 1049.9 |
| 20260508133607 | 13 | 198 | 3.2 | 4.8 | 0.00 | 0.00 | 0.00 | 58 | 1049.9 |
| 20260508133104 | 13 | 182 | 6.4 | 6.4 | 0.00 | 0.00 | 0.00 | 57 | 1050.0 |
| 20260508132602 | 12 | 194 | 4.8 | 6.4 | 0.00 | 0.00 | 0.00 | 57 | 1049.9 |
| 20260508132059 | 12 | 162 | 6.4 | 9.7 | 0.00 | 0.00 | 0.00 | 57 | 1049.8 |
| 20260508131554 | 12 | 234 | 6.4 | 9.7 | 0.00 | 0.00 | 0.00 | 59 | 1049.8 |
| 20260508131051 | 11 | 159 | 1.6 | 6.4 | 0.00 | 0.00 | 0.00 | 62 | 1049.9 |
| 20260508130548 | 11 | 214 | 3.2 | 4.8 | 0.00 | 0.00 | 0.00 | 63 | 1050.0 |
| 20260508130044 | 11 | 168 | 3.2 | 4.8 | 0.00 | 0.00 | 0.00 | 65 | 1049.9 |
| 20260508125540 | 11 | 223 | 3.2 | 3.2 | 0.00 | 0.00 | 0.00 | 64 | 1049.9 |
| 20260508125038 | 10 | 197 | 1.6 | 4.8 | 0.00 | 0.00 | 0.00 | 65 | 1049.6 |
| 20260508124536 | 10 | 223 | 3.2 | 4.8 | 0.00 | 0.00 | 0.00 | 68 | 1049.8 |
| 20260508124033 | 10 | 194 | 3.2 | 6.4 | 0.00 | 0.00 | 0.00 | 69 | 1049.9 |
| 20260508123531 | 9 | 163 | 3.2 | 6.4 | 0.00 | 0.00 | 0.00 | 69 | 1049.8 |
| 20260508123027 | 9 | 221 | 4.8 | 6.4 | 0.00 | 0.00 | 0.00 | 69 | 1049.9 |
| 20260508122524 | 9 | 174 | 4.8 | 9.7 | 0.00 | 0.00 | 0.00 | 70 | 1049.8 |
| 20260508122021 | 8 | 208 | 3.2 | 9.7 | 0.00 | 0.00 | 0.00 | 71 | 1049.8 |
| 20260508121520 | 8 | 211 | 1.6 | 6.4 | 0.00 | 0.00 | 0.00 | 76 | 1049.8 |
| 20260508121017 | 8 | 232 | 3.2 | 6.4 | 0.00 | 0.00 | 0.00 | 73 | 1049.5 |
| 20260508120514 | 7 | 186 | 3.2 | 6.4 | 0.00 | 0.00 | 0.00 | 75 | 1049.8 |
| 20260508120013 | 7 | 172 | 3.2 | 6.4 | 0.00 | 0.00 | 0.00 | 77 | 1049.7 |
| 20260508115510 | 7 | 189 | 4.8 | 6.4 | 0.00 | 0.00 | 0.00 | 77 | 1049.7 |
| 20260508115006 | 6 | 113 | 0.0 | 4.8 | 0.00 | 0.00 | 0.00 | 80 | 1049.7 |
| 20260508114503 | 6 | 165 | 3.2 | 4.8 | 0.00 | 0.00 | 0.00 | 81 | 1049.6 |
| 20260508113959 | 5 | 179 | 1.6 | 3.2 | 0.00 | 0.00 | 0.00 | 84 | 1049.5 |
| 20260508113458 | 5 | 132 | 0.0 | 0.0 | 0.00 | 0.00 | 0.00 | 84 | 1049.3 |
| 20260508112954 | 5 | 132 | 0.0 | 0.0 | 0.00 | 0.00 | 0.00 | 85 | 1049.2 |
| 20260508112451 | 4 | 132 | 0.0 | 0.0 | 0.00 | 0.00 | 0.00 | 86 | 1049.3 |
| 20260508111948 | 4 | 132 | 0.0 | 0.0 | 0.00 | 0.00 | 0.00 | 87 | 1049.3 |
| 20260508111445 | 3 | 132 | 0.0 | 0.0 | 0.00 | 0.00 | 0.00 | 88 | 1049.2 |
| 20260508110942 | 3 | 132 | 0.0 | 0.0 | 0.00 | 0.00 | 0.00 | 90 | 1049.3 |
| 20260508110440 | 3 | 132 | 0.0 | 0.0 | 0.00 | 0.00 | 0.00 | 91 | 1049.4 |
| 20260508105939 | 3 | 132 | 0.0 | 0.0 | 0.00 | 0.00 | 0.00 | 92 | 1049.3 |
| 20260508105436 | 3 | 132 | 0.0 | 0.0 | 0.00 | 0.00 | 0.00 | 90 | 1049.0 |
| 20260508104933 | 3 | 132 | 0.0 | 0.0 | 0.00 | 0.00 | 0.00 | 90 | 1049.3 |
| 20260508104431 | 3 | 132 | 0.0 | 0.0 | 0.00 | 0.00 | 0.00 | 90 | 1049.1 |
| 20260508103927 | 3 | 132 | 0.0 | 0.0 | 0.00 | 0.00 | 0.00 | 91 | 1049.2 |
| 20260508103424 | 3 | 132 | 0.0 | 0.0 | 0.00 | 0.00 | 0.00 | 91 | 1049.1 |
| 20260508102921 | 3 | 132 | 0.0 | 0.0 | 0.00 | 0.00 | 0.00 | 91 | 1049.1 |
| 20260508102420 | 3 | 132 | 0.0 | 0.0 | 0.00 | 0.00 | 0.00 | 91 | 1049.0 |
| 20260508101916 | 3 | 132 | 0.0 | 0.0 | 0.00 | 0.00 | 0.00 | 91 | 1049.0 |
| 20260508101414 | 3 | 132 | 0.0 | 0.0 | 0.00 | 0.00 | 0.00 | 93 | 1049.0 |
| 20260508100911 | 3 | 132 | 0.0 | 0.0 | 0.00 | 0.00 | 0.00 | 93 | 1049.0 |
| 20260508100410 | 3 | 132 | 0.0 | 0.0 | 0.00 | 0.00 | 0.00 | 92 | 1049.0 |
| 20260508095910 | 3 | 132 | 0.0 | 0.0 | 0.00 | 0.00 | 0.00 | 92 | 1048.9 |
| 20260508095409 | 3 | 132 | 0.0 | 0.0 | 0.00 | 0.00 | 0.00 | 90 | 1049.0 |
| 20260508094905 | 3 | 132 | 0.0 | 0.0 | 0.00 | 0.00 | 0.00 | 89 | 1048.8 |
| 20260508094402 | 3 | 132 | 0.0 | 0.0 | 0.00 | 0.00 | 0.00 | 90 | 1048.9 |
| 20260508093859 | 3 | 132 | 0.0 | 0.0 | 0.00 | 0.00 | 0.00 | 89 | 1049.0 |
| 20260508093356 | 3 | 132 | 0.0 | 0.0 | 0.00 | 0.00 | 0.00 | 88 | 1049.1 |
| 20260508092854 | 3 | 132 | 0.0 | 0.0 | 0.00 | 0.00 | 0.00 | 87 | 1049.1 |
| 20260508092351 | 3 | 132 | 0.0 | 0.0 | 0.00 | 0.00 | 0.00 | 87 | 1049.0 |
| 20260508091850 | 3 | 132 | 0.0 | 0.0 | 0.00 | 0.00 | 0.00 | 86 | 1048.9 |
| 20260508091345 | 3 | 132 | 0.0 | 0.0 | 0.00 | 0.00 | 0.00 | 86 | 1048.9 |
| 20260508090843 | 4 | 132 | 0.0 | 0.0 | 0.00 | 0.00 | 0.00 | 86 | 1049.0 |
| 20260508090342 | 4 | 132 | 0.0 | 0.0 | 0.00 | 0.00 | 0.00 | 87 | 1049.1 |
| 20260508085843 | 4 | 132 | 0.0 | 0.0 | 0.00 | 0.00 | 0.00 | 87 | 1048.8 |
| 20260508085340 | 4 | 131 | 0.0 | 0.0 | 0.00 | 0.00 | 0.00 | 86 | 1048.9 |
| 20260508084836 | 4 | 153 | 0.0 | 0.0 | 0.00 | 0.00 | 0.00 | 86 | 1049.0 |
| 20260508084333 | 4 | 153 | 0.0 | 0.0 | 0.00 | 0.00 | 0.00 | 88 | 1049.0 |
| 20260508083831 | 4 | 153 | 0.0 | 0.0 | 0.00 | 0.00 | 0.00 | 86 | 1049.0 |
| 20260508083329 | 4 | 153 | 0.0 | 0.0 | 0.00 | 0.00 | 0.00 | 84 | 1048.9 |
| 20260508082828 | 5 | 153 | 0.0 | 0.0 | 0.00 | 0.00 | 0.00 | 83 | 1049.2 |
| 20260508082326 | 5 | 154 | 0.0 | 1.6 | 0.00 | 0.00 | 0.00 | 83 | 1048.9 |
| 20260508081823 | 4 | 196 | 0.0 | 1.6 | 0.00 | 0.00 | 0.00 | 86 | 1048.9 |
| 20260508081319 | 4 | 196 | 1.6 | 1.6 | 0.00 | 0.00 | 0.00 | 88 | 1049.0 |
| 20260508080817 | 4 | 248 | 0.0 | 0.0 | 0.00 | 0.00 | 0.00 | 87 | 1049.0 |
| 20260508080315 | 3 | 248 | 0.0 | 0.0 | 0.00 | 0.00 | 0.00 | 91 | 1049.0 |
| 20260508075811 | 3 | 248 | 0.0 | 0.0 | 0.00 | 0.00 | 0.00 | 91 | 1048.8 |
| 20260508075309 | 3 | 248 | 0.0 | 0.0 | 0.00 | 0.00 | 0.00 | 90 | 1048.8 |
| 20260508074806 | 3 | 248 | 0.0 | 0.0 | 0.00 | 0.00 | 0.00 | 89 | 1048.9 |
| 20260508074302 | 3 | 248 | 0.0 | 0.0 | 0.00 | 0.00 | 0.00 | 89 | 1048.9 |
| 20260508073759 | 4 | 248 | 0.0 | 0.0 | 0.00 | 0.00 | 0.00 | 89 | 1049.1 |
| 20260508073257 | 3 | 248 | 0.0 | 0.0 | 0.00 | 0.00 | 0.00 | 91 | 1049.0 |
| 20260508072753 | 3 | 248 | 0.0 | 0.0 | 0.00 | 0.00 | 0.00 | 90 | 1049.0 |
| 20260508072250 | 4 | 248 | 0.0 | 0.0 | 0.00 | 0.00 | 0.00 | 89 | 1048.8 |
| 20260508071748 | 4 | 248 | 0.0 | 0.0 | 0.00 | 0.00 | 0.00 | 90 | 1049.1 |
| 20260508071246 | 4 | 248 | 0.0 | 0.0 | 0.00 | 0.00 | 0.00 | 88 | 1048.9 |
| 20260508070743 | 4 | 248 | 0.0 | 0.0 | 0.00 | 0.00 | 0.00 | 88 | 1048.8 |
| 20260508070242 | 4 | 251 | 0.0 | 0.0 | 0.00 | 0.00 | 0.00 | 91 | 1049.1 |
| 20260508065738 | 3 | 300 | 0.0 | 0.0 | 0.00 | 0.00 | 0.00 | 93 | 1049.0 |
| 20260508065236 | 3 | 315 | 0.0 | 0.0 | 0.00 | 0.00 | 0.00 | 93 | 1049.2 |
| 20260508064734 | 3 | 315 | 0.0 | 0.0 | 0.00 | 0.00 | 0.00 | 93 | 1049.1 |
| 20260508064232 | 3 | 315 | 0.0 | 0.0 | 0.00 | 0.00 | 0.00 | 93 | 1049.0 |
| 20260508063729 | 3 | 315 | 0.0 | 0.0 | 0.00 | 0.00 | 0.00 | 93 | 1049.1 |
| 20260508063227 | 3 | 315 | 0.0 | 0.0 | 0.00 | 0.00 | 0.00 | 93 | 1049.1 |
| 20260508062724 | 3 | 315 | 0.0 | 0.0 | 0.00 | 0.00 | 0.00 | 93 | 1049.0 |
| 20260508062221 | 3 | 315 | 0.0 | 0.0 | 0.00 | 0.00 | 0.00 | 93 | 1049.3 |
| 20260508061718 | 3 | 315 | 0.0 | 0.0 | 0.00 | 0.00 | 0.00 | 93 | 1049.0 |
| 20260508061215 | 3 | 315 | 0.0 | 0.0 | 0.00 | 0.00 | 0.00 | 93 | 1049.2 |
| 20260508060711 | 3 | 315 | 0.0 | 0.0 | 0.00 | 0.00 | 0.00 | 92 | 1049.3 |
| 20260508060209 | 3 | 315 | 0.0 | 0.0 | 0.00 | 0.00 | 0.00 | 92 | 1049.2 |
| 20260508055704 | 3 | 315 | 0.0 | 0.0 | 0.00 | 0.00 | 0.00 | 92 | 1049.4 |
| 20260508055202 | 4 | 315 | 0.0 | 0.0 | 0.00 | 0.00 | 0.00 | 91 | 1049.4 |
| 20260508054658 | 4 | 315 | 0.0 | 0.0 | 0.00 | 0.00 | 0.00 | 91 | 1049.5 |
| 20260508054156 | 4 | 315 | 0.0 | 0.0 | 0.00 | 0.00 | 0.00 | 93 | 1049.4 |
| 20260508053653 | 3 | 315 | 0.0 | 0.0 | 0.00 | 0.00 | 0.00 | 93 | 1049.3 |
| 20260508053150 | 3 | 315 | 0.0 | 0.0 | 0.00 | 0.00 | 0.00 | 92 | 1049.6 |
| 20260508052647 | 4 | 315 | 0.0 | 0.0 | 0.00 | 0.00 | 0.00 | 92 | 1049.5 |
| 20260508052144 | 4 | 315 | 0.0 | 0.0 | 0.00 | 0.00 | 0.00 | 91 | 1049.4 |
| 20260508051640 | 4 | 315 | 0.0 | 0.0 | 0.00 | 0.00 | 0.00 | 91 | 1049.5 |
| 20260508051136 | 4 | 315 | 0.0 | 0.0 | 0.00 | 0.00 | 0.00 | 90 | 1049.4 |
| 20260508050632 | 4 | 315 | 0.0 | 0.0 | 0.00 | 0.00 | 0.00 | 89 | 1049.4 |
| 20260508050130 | 4 | 315 | 0.0 | 0.0 | 0.00 | 0.00 | 0.00 | 88 | 1049.7 |
| 20260508045625 | 4 | 315 | 0.0 | 0.0 | 0.00 | 0.00 | 0.00 | 87 | 1049.3 |
| 20260508045124 | 5 | 315 | 0.0 | 0.0 | 0.00 | 0.00 | 0.00 | 86 | 1049.1 |
| 20260508044621 | 5 | 315 | 0.0 | 0.0 | 0.00 | 0.00 | 0.00 | 86 | 1049.2 |
| 20260508044117 | 5 | 315 | 0.0 | 0.0 | 0.00 | 0.00 | 0.00 | 86 | 1049.1 |
| 20260508043613 | 5 | 315 | 0.0 | 0.0 | 0.00 | 0.00 | 0.00 | 85 | 1049.3 |
| 20260508043111 | 5 | 315 | 0.0 | 0.0 | 0.00 | 0.00 | 0.00 | 84 | 1049.4 |
| 20260508042608 | 5 | 315 | 0.0 | 1.6 | 0.00 | 0.00 | 0.00 | 86 | 1049.4 |
| 20260508042105 | 5 | 315 | 0.0 | 0.0 | 0.00 | 0.00 | 0.00 | 86 | 1049.3 |
| 20260508041601 | 5 | 314 | 0.0 | 0.0 | 0.00 | 0.00 | 0.00 | 88 | 1049.3 |
| 20260508041058 | 5 | 315 | 0.0 | 0.0 | 0.00 | 0.00 | 0.00 | 86 | 1049.1 |
| 20260508040554 | 5 | 315 | 0.0 | 0.0 | 0.00 | 0.00 | 0.00 | 85 | 1049.3 |
| 20260508040052 | 5 | 315 | 0.0 | 0.0 | 0.00 | 0.00 | 0.00 | 84 | 1049.3 |
| 20260508035549 | 5 | 315 | 0.0 | 0.0 | 0.00 | 0.00 | 0.00 | 85 | 1049.3 |
| 20260508035046 | 5 | 315 | 0.0 | 0.0 | 0.00 | 0.00 | 0.00 | 86 | 1049.3 |
| 20260508034543 | 5 | 315 | 0.0 | 0.0 | 0.00 | 0.00 | 0.00 | 88 | 1049.1 |
| 20260508034040 | 5 | 314 | 0.0 | 0.0 | 0.00 | 0.00 | 0.00 | 88 | 1049.4 |
| 20260508033538 | 6 | 314 | 0.0 | 0.0 | 0.00 | 0.00 | 0.00 | 87 | 1049.4 |
| 20260508033036 | 6 | 314 | 0.0 | 0.0 | 0.00 | 0.00 | 0.00 | 85 | 1049.4 |